TimeCST,TemperatureF,Dew PointF,Humidity,Sea Level PressureIn,VisibilityMPH,Wind Direction,Wind SpeedMPH,Gust SpeedMPH,PrecipitationIn,Events,Conditions,WindDirDegrees,DateUTC
1:55 AM,53.6,32.0,44,29.83,10.0,South,24.2,35.7,N/A,,Clear,180,2013-02-18 07:55:00
2:15 AM,53.6,32.0,44,29.82,10.0,South,25.3,34.5,N/A,,Clear,180,2013-02-18 08:15:00
2:35 AM,53.6,33.8,47,29.82,10.0,South,25.3,33.4,N/A,,Clear,180,2013-02-18 08:35:00
3:15 AM,51.8,35.6,54,29.81,10.0,South,25.3,33.4,N/A,,Clear,180,2013-02-18 09:15:00
3:55 AM,51.8,37.4,58,29.79,10.0,South,23.0,28.8,N/A,,Clear,180,2013-02-18 09:55:00
4:15 AM,51.8,37.4,58,29.78,10.0,South,26.5,34.5,N/A,,Clear,180,2013-02-18 10:15:00
4:35 AM,51.8,37.4,58,29.78,10.0,South,26.5,34.5,N/A,,Clear,180,2013-02-18 10:35:00
4:55 AM,51.8,39.2,62,29.78,10.0,South,26.5,32.2,N/A,,Mostly Cloudy,180,2013-02-18 10:55:00
5:15 AM,53.6,39.2,58,29.77,10.0,South,28.8,38.0,N/A,,Overcast,180,2013-02-18 11:15:00
5:35 AM,53.6,39.2,58,29.77,10.0,South,18.4,38.0,N/A,,Overcast,170,2013-02-18 11:35:00
6:15 AM,53.6,41.0,62,29.75,10.0,South,23.0,31.1,N/A,,Overcast,170,2013-02-18 12:15:00
6:35 AM,53.6,41.0,62,29.74,10.0,South,20.7,28.8,N/A,,Overcast,170,2013-02-18 12:35:00
6:55 AM,53.6,41.0,62,29.74,10.0,South,18.4,29.9,N/A,,Overcast,180,2013-02-18 12:55:00
7:15 AM,53.6,42.8,67,29.73,10.0,South,24.2,32.2,N/A,,Overcast,180,2013-02-18 13:15:00
7:35 AM,53.6,42.8,67,29.74,10.0,South,20.7,29.9,N/A,,Overcast,180,2013-02-18 13:35:00
7:55 AM,53.6,42.8,67,29.74,10.0,South,21.9,29.9,N/A,,Overcast,180,2013-02-18 13:55:00
8:15 AM,53.6,42.8,67,29.75,10.0,South,19.6,26.5,N/A,,Overcast,180,2013-02-18 14:15:00
8:35 AM,55.4,42.8,63,29.74,10.0,South,25.3,31.1,N/A,,Overcast,190,2013-02-18 14:35:00
8:55 AM,55.4,44.6,67,29.74,10.0,South,21.9,32.2,N/A,,Overcast,180,2013-02-18 14:55:00
9:15 AM,55.4,44.6,67,29.73,10.0,South,21.9,28.8,N/A,,Overcast,180,2013-02-18 15:15:00
9:35 AM,55.4,44.6,67,29.73,10.0,South,20.7,31.1,N/A,,Overcast,180,2013-02-18 15:35:00
9:55 AM,57.2,44.6,63,29.72,10.0,South,20.7,31.1,N/A,,Overcast,180,2013-02-18 15:55:00
10:15 AM,55.4,44.6,67,29.72,10.0,South,24.2,32.2,N/A,,Mostly Cloudy,180,2013-02-18 16:15:00
10:35 AM,55.4,44.6,67,29.71,10.0,South,24.2,-,N/A,,Overcast,180,2013-02-18 16:35:00
10:55 AM,55.4,46.4,72,29.70,10.0,South,20.7,26.5,N/A,,Mostly Cloudy,180,2013-02-18 16:55:00
11:15 AM,57.2,46.4,67,29.70,10.0,South,24.2,31.1,N/A,,Overcast,190,2013-02-18 17:15:00
11:35 AM,57.2,46.4,67,29.69,10.0,South,26.5,32.2,N/A,,Overcast,180,2013-02-18 17:35:00
12:15 PM,57.2,46.4,67,29.66,10.0,South,26.5,33.4,N/A,,Overcast,180,2013-02-18 18:15:00
12:35 PM,57.2,46.4,67,29.65,10.0,South,26.5,32.2,N/A,Thunderstorm,Thunderstorm,180,2013-02-18 18:35:00
12:55 PM,59.0,48.2,67,29.65,10.0,SSW,27.6,34.5,N/A,Thunderstorm,Overcast,200,2013-02-18 18:55:00
1:15 PM,57.2,48.2,72,29.64,10.0,SSW,25.3,31.1,N/A,Thunderstorm,Overcast,200,2013-02-18 19:15:00
1:55 PM,55.4,48.2,77,29.65,10.0,West,20.7,27.6,0.09,Thunderstorm,Thunderstorm,260,2013-02-18 19:55:00
2:15 PM,55.4,44.6,67,29.67,10.0,West,16.1,23.0,N/A,,Scattered Clouds,280,2013-02-18 20:15:00
2:35 PM,55.4,42.8,63,29.67,10.0,West,21.9,27.6,N/A,,Mostly Cloudy,270,2013-02-18 20:35:00
2:55 PM,57.2,37.4,48,29.69,10.0,West,25.3,33.4,N/A,,Scattered Clouds,280,2013-02-18 20:55:00
3:15 PM,55.4,37.4,51,29.72,10.0,WNW,27.6,33.4,N/A,,Clear,300,2013-02-18 21:15:00
3:35 PM,55.4,35.6,47,29.75,10.0,WNW,28.8,34.5,N/A,,Scattered Clouds,300,2013-02-18 21:35:00
3:55 PM,53.6,35.6,51,29.77,10.0,WNW,28.8,35.7,N/A,,Scattered Clouds,300,2013-02-18 21:55:00
4:15 PM,51.8,35.6,54,29.78,10.0,NW,18.4,-,N/A,,Partly Cloudy,320,2013-02-18 22:15:00
4:35 PM,51.8,33.8,50,29.80,10.0,WNW,23.0,31.1,N/A,,Scattered Clouds,300,2013-02-18 22:35:00
4:55 PM,50.0,32.0,50,29.82,10.0,NW,26.5,31.1,N/A,,Partly Cloudy,310,2013-02-18 22:55:00
5:15 PM,48.2,32.0,54,29.84,10.0,NW,20.7,-,N/A,,Partly Cloudy,320,2013-02-18 23:15:00
5:35 PM,48.2,30.2,50,29.86,10.0,NW,16.1,-,N/A,,Partly Cloudy,320,2013-02-18 23:35:00
5:55 PM,46.4,30.2,53,29.88,10.0,NW,13.8,23.0,N/A,,Partly Cloudy,310,2013-02-18 23:55:00
6:15 PM,46.4,30.2,53,29.90,10.0,NW,18.4,27.6,N/A,,Mostly Cloudy,320,2013-02-19 00:15:00
6:35 PM,46.4,30.2,53,29.92,10.0,NNW,19.6,-,N/A,,Scattered Clouds,330,2013-02-19 00:35:00
6:55 PM,44.6,28.4,53,29.94,10.0,NNW,18.4,28.8,N/A,,Clear,330,2013-02-19 00:55:00
7:15 PM,42.8,28.4,57,29.96,10.0,NW,18.4,25.3,N/A,,Clear,320,2013-02-19 01:15:00
7:35 PM,41.0,28.4,61,29.98,10.0,NW,9.2,17.3,N/A,,Clear,320,2013-02-19 01:35:00
7:55 PM,41.0,28.4,61,29.99,10.0,NW,15.0,-,N/A,,Clear,320,2013-02-19 01:55:00
8:15 PM,39.2,28.4,65,30.00,10.0,NNW,13.8,-,N/A,,Clear,330,2013-02-19 02:15:00
8:35 PM,39.2,28.4,65,30.02,10.0,NNW,17.3,21.9,N/A,,Clear,330,2013-02-19 02:35:00
8:55 PM,39.2,28.4,65,30.04,10.0,NNW,15.0,19.6,N/A,,Clear,330,2013-02-19 02:55:00
9:15 PM,37.4,26.6,65,30.05,10.0,NNW,13.8,20.7,N/A,,Clear,330,2013-02-19 03:15:00
9:35 PM,37.4,26.6,65,30.06,10.0,NNW,17.3,23.0,N/A,,Clear,340,2013-02-19 03:35:00
9:55 PM,37.4,24.8,60,30.08,10.0,NNW,13.8,21.9,N/A,,Clear,330,2013-02-19 03:55:00
10:15 PM,35.6,24.8,65,30.10,10.0,NNW,13.8,-,N/A,,Clear,340,2013-02-19 04:15:00
10:35 PM,35.6,23.0,60,30.11,10.0,NNW,12.7,20.7,N/A,,Clear,340,2013-02-19 04:35:00
10:55 PM,35.6,21.2,56,30.12,10.0,NNW,11.5,19.6,N/A,,Clear,330,2013-02-19 04:55:00
11:15 PM,33.8,21.2,60,30.13,10.0,NNW,10.4,-,N/A,,Clear,330,2013-02-19 05:15:00
11:35 PM,33.8,21.2,60,30.14,10.0,NNW,8.1,-,N/A,,Clear,330,2013-02-19 05:35:00
11:55 PM,33.8,21.2,60,30.15,10.0,NNW,9.2,-,N/A,,Clear,330,2013-02-19 05:55:00